HULIANWANG DIGUI-29

导读 | 豆包AI

HULIANWANG DIGUI-29是中国于2025年4月28日发射的低轨互联网卫星,归属于“低轨数字星座”体系,主要服务于全球宽带互联网接入需求。该卫星承载了中国低轨卫星通信网络建设的关键任务,旨在填补地面通信覆盖盲区,为偏远地区、海上及航空场景提供高速稳定网络连接,助力中国空间互联网基础设施的组网完善。

基本信息
目录编号:
63696
目录名称:
HULIANWANG DIGUI-29
国际标识:
2025-086K
轨道中心:
EARTH
卫星名称:
HULIANWANG DIGUI-29
卫星全名:
HULIANWANG DIGUI-29
卫星状态:
在轨 (已飞行320 天)
发射日期:
2025-04-28 UTC
国别 :
中国 (CN)
星等 :
--
轨道信息
数据来源 国际轨道数据
星历时间: 2026-03-14T05:27:57+0800
8小时前
查看轨道信息
半长轴: 7546.017km
偏心率: 0.0001819
轨道倾角: 86.510°
近地点辐角 91.664°
升交点赤经 345.161°
平近点角 268.471°
近地点: 1166.507km
远地点: 1169.253km
周期: 108.727分钟
每日圈数: 13.244212
详细信息
使用方式:
暂无
2D轨道图
3D轨道图
轨道高度分析图
轨道倾角分析图
轨道综合分析图
查看轨道综合分析图